This is the latest recevied weather packets stored in our database for station/object KI6PPU. If no packets are shown the sender has not sent any weather packets the latest 10 day(s).
| Time | Temp. | Humidity | Pressure | Rain* | Wind** | Luminosity | Snow |
|---|---|---|---|---|---|---|---|
| 1777490711 | 23.33° C | 53% | 1019.7 hPa | 0 mm | - | 855 W/m² | - |
| 1777490410 | 23.89° C | 49% | 1019.8 hPa | 0 mm | - | 847 W/m² | - |
| 1777490105 | 23.33° C | 54% | 1019.9 hPa | 0 mm | - | 814 W/m² | - |
| 1777489803 | 22.78° C | 53% | 1019.8 hPa | 0 mm | - | 828 W/m² | - |
| 1777489500 | 22.78° C | 51% | 1019.6 hPa | 0 mm | - | 840 W/m² | - |
| 1777489197 | 23.33° C | 55% | 1019.7 hPa | 0 mm | - | 678 W/m² | - |
| 1777488894 | 22.78° C | 54% | 1019.9 hPa | 0 mm | - | 531 W/m² | - |
| 1777488590 | 22.78° C | 53% | 1019.9 hPa | 0 mm | - | 847 W/m² | - |
| 1777488288 | 22.78° C | 52% | 1020 hPa | 0 mm | - | 855 W/m² | - |
| 1777487987 | 22.78° C | 52% | 1019.9 hPa | 0 mm | - | 845 W/m² | - |
| 1777487684 | 22.22° C | 53% | 1020.1 hPa | 0 mm | - | 855 W/m² | - |
| 1777487380 | 22.78° C | 50% | 1020 hPa | 0 mm | - | 782 W/m² | - |
| 1777487078 | 22.78° C | 52% | 1019.9 hPa | 0 mm | - | 516 W/m² | - |
| 1777486779 | 22.78° C | 54% | 1020.2 hPa | 0 mm | - | 541 W/m² | - |
| 1777486477 | 22.22° C | 54% | 1020 hPa | 0 mm | - | 717 W/m² | - |
| 1777486174 | 22.78° C | 52% | 1020.1 hPa | 0 mm | - | 828 W/m² | - |
| 1777485872 | 22.78° C | 54% | 1020.1 hPa | 0 mm | - | 776 W/m² | - |
| 1777485567 | 22.22° C | 55% | 1020.1 hPa | 0 mm | - | 938 W/m² | - |
| 1777485263 | 22.78° C | 52% | 1020.2 hPa | 0 mm | - | 946 W/m² | - |
| 1777484960 | 22.78° C | 52% | 1020.2 hPa | 0 mm | - | 870 W/m² | - |
| 1777484657 | 22.78° C | 49% | 1020.2 hPa | 0 mm | - | 998 W/m² | - |
| 1777484353 | 22.78° C | 57% | 1020.2 hPa | 0 mm | - | 1029 W/m² | - |
| 1777484049 | 22.78° C | 52% | 1020.2 hPa | 0 mm | - | 721 W/m² | - |
| 1777483746 | 22.78° C | 53% | 1020.2 hPa | 0 mm | - | 921 W/m² | - |
| 1777483442 | 21.67° C | 51% | 1020.1 hPa | 0 mm | - | 730 W/m² | - |
* Rain latest hour (hover to see other rain measurements)
** Current wind speed in m/s (hover to see current wind gust speed)